Regional Weather Roundup
Issued by NWS Little Rock, AR

Home | Current Version | Previous Version | Graphics & Text | Print | Product List | Glossary On
Versions: 1 2 3 4 5 6 7 8 9 10 11 12 13 14 15 16 17 18 19 20 21 22 23 24 25 26 27 28 29 30 31 32 33 34 35 36 37 38 39 40 41 42 43 44 45 46 47 48 49 50
000
ASUS44 KLZK 230505
RWRLZK

WEATHER ROUNDUP FOR ARKANSAS
NATIONAL WEATHER SERVICE LITTLE ROCK AR
1100 PM CST SUN JAN 22 2017

NOTE: "FAIR" INDICATES FEW OR NO CLOUDS BELOW 12,000 FEET WITH NO
SIGNIFICANT WEATHER AND/OR OBSTRUCTIONS TO VISIBILITY.

ARZ001-003-010-029-230600-
NORTHWEST ARKANSAS

CITY           SKY/WX    TMP DP  RH WIND       PRES   REMARKS
FAYETTEVILLE   CLOUDY    36  34  92 N12       29.87R FOG
FORT SMITH     CLEAR     44  33  65 NW13G21   29.85R
HARRISON       LGT RAIN  37  36  96 NW12G21   29.81R
BENTONVILLE    CLOUDY   N/A N/A N/A N14G20    29.88R
ROGERS         CLOUDY    34  32  92 N9G17     29.88R WCI  27
SILOAM SPGS    CLOUDY    36  30  80 N15G23    29.88R
HIGHFILL       CLOUDY    36  32  85 N16       29.88R
$$

ARZ004-005-016-230600-
NORTH CENTRAL ARKANSAS

CITY           SKY/WX    TMP DP  RH WIND       PRES   REMARKS
BATESVILLE     PTCLDY    46  39  76 W15G31    29.69R
FLIPPIN        CLOUDY    41  32  70 NW13G21   29.76R
MTN HOME       CLOUDY    40  35  83 VRB6G22   29.77R
$$

ARZ040-041-230600-
WEST CENTRAL ARKANSAS

CITY           SKY/WX    TMP DP  RH WIND       PRES   REMARKS
MENA           CLEAR     48  41  76 NW10      29.81R
MOUNT IDA      MOCLDY    49  37  63 VRB3      29.75R
$$

ARZ009-017-025-026-028-230600-
NORTHEAST ARKANSAS

CITY           SKY/WX    TMP DP  RH WIND       PRES   REMARKS
CORNING        FAIR      48  41  76 NW16G25   29.62R
JONESBORO      CLEAR     51  41  68 NW15G25   29.58R
NEWPORT        CLOUDY    49  42  77 MISG        N/A
WALNUT RIDGE   PTCLDY    48  39  71 NW22      29.62R
BLYTHEVILLE    PTCLDY    51  48  89 N21G29    29.54R
$$

ARZ022-023-033-042-044-230600-
CENTRAL ARKANSAS

CITY           SKY/WX    TMP DP  RH WIND       PRES   REMARKS
LITTLE ROCK    CLOUDY    51  46  83 NW21G29   29.68R
JACKSONVILLE   CLOUDY    51  45  80 NW15G23   29.67R
SEARCY         PTCLDY    50  44  80 NW15G25   29.67R
HOT SPRINGS    CLOUDY    51  42  71 NW15G22   29.73R
RUSSELLVILLE   CLOUDY    50  42  74 NW8       29.75R
CLINTON        CLOUDY    48  41  76 VRB5G17   29.72R
$$

ARZ036-230600-
EAST ARKANSAS

CITY           SKY/WX    TMP DP  RH WIND       PRES   REMARKS
WEST MEMPHIS   CLOUDY    54  49  83 N14G24    29.54R
$$

ARZ050-053-066-070-073-230600-
SOUTHWEST ARKANSAS

CITY           SKY/WX    TMP DP  RH WIND       PRES   REMARKS
ARKADELPHIA    CLOUDY    51  43  74 NW10      29.74R
CAMDEN         MOCLDY    52  41  66 NW9G16    29.73R
TEXARKANA      CLEAR     49  41  74 NW10      29.81R
EL DORADO        N/A    N/A N/A N/A MISG      29.73R
DE QUEEN       CLEAR     47  38  71 NW6       29.81R
$$

ARZ056-057-069-230600-
SOUTHEAST ARKANSAS

CITY           SKY/WX    TMP DP  RH WIND       PRES   REMARKS
PINE BLUFF     CLOUDY    53  46  77 NW15      29.67R
STUTTGART      CLOUDY    52  41  66 NW23      29.63R
MONTICELLO     CLOUDY    54  47  77 NW14G20   29.65R

$$





USA.gov is the U.S. government's official web portal to all federal, state and local government web resources and services.